Content
SEND FEEDBACK

Daily
Averages
Monthly
Summary
United States of America

ANCHORAGE - MERRILL FIELD, ALASKA


Home > North America > United States > Alaska
Elevation: 140 feet     Latitude: 61 13N     Longitude: 149 50W

WEATHER
 
SELECT A DAY
Number of Records: 183,774;   Date Range: 1/1/95 - 9/3/14
 
SHARE

PRINT THIS DATA

[ ← Previous Day ]
WEATHER ALMANAC - JANUARY 23, 2013
[ Next Day → ]
[ °C ]   °F
Weather ElementAverageHighLow
Temperature28.2 °F34 °F (1:53 pm)19.9 °F (11:53 pm)
Dewpoint25.5 °F30 °F (4:53 pm)19.4 °F (11:18 pm)
Humidity90 %100 % (7:53 pm)73 % (1:53 pm)
Barometer29.35 in29.42 in (1:53 am)29.32 in (2:53 pm)
Wind Speed1.8 mph5.8 mph (2:53 pm)
Weather ElementAverage
Visibility9.3 mi
Wind DirectionENE (81.7 °)

Weather ElementTotal
Precipitation---
Heating Degree Days38.1 (Base 65)
Averaged from 24 records on January 23, 2013
WEATHER CONDITIONS BREAKOUT
WIND DIRECTION BREAKOUT
WEATHER BY HOUR - JANUARY 23, 2013
[ °C ]   °F
Local TimeTemperatureDewpointHumidityBarometerVisibilityWind DirectionWind SpeedGust SpeedPrecipitationEventsConditions
1:53 AM30.9 °F25.0 °F79 %29.42 in10.0 miNorth (360°)3.5 mphOvercast
3:53 AM27.0 °F24.1 °F89 %29.40 in10.0 miCalmOvercast
4:53 AM28.9 °F26.1 °F89 %29.38 in10.0 miCalmOvercast
5:53 AM28.9 °F25.0 °F85 %29.37 in10.0 miNorth (10°)3.5 mphMostly Cloudy
6:53 AM27.0 °F24.1 °F89 %29.36 in10.0 miCalmMostly Cloudy
7:53 AM28.0 °F25.0 °F88 %29.34 in10.0 miCalmScattered Clouds
8:53 AM30.0 °F25.0 °F82 %29.34 in10.0 miCalmScattered Clouds
9:53 AM30.0 °F27.0 °F88 %29.34 in10.0 miCalmMostly Cloudy
10:53 AM28.0 °F26.1 °F92 %29.35 in10.0 miCalmMostly Cloudy
11:53 AM30.0 °F26.1 °F85 %29.34 in10.0 miCalmOvercast
12:53 PM30.9 °F27.0 °F85 %29.34 in10.0 miCalmOvercast
1:53 PM34.0 °F26.1 °F73 %29.33 in10.0 miNorth (360°)3.5 mphMostly Cloudy
2:53 PM32.0 °F27.0 °F82 %29.32 in10.0 miNorth (350°)5.8 mphMostly Cloudy
3:53 PM32.0 °F28.0 °F85 %29.32 in10.0 miCalmScattered Clouds
4:53 PM32.0 °F30.0 °F92 %29.32 in10.0 miCalmScattered Clouds
5:53 PM30.9 °F30.0 °F96 %29.32 in10.0 miNNE (30°)3.5 mphMostly Cloudy
6:53 PM30.9 °F28.9 °F92 %29.33 in10.0 miNNE (30°)3.5 mphMostly Cloudy
7:53 PM28.0 °F28.0 °F100 %29.34 in10.0 miNE (50°)3.5 mphMostly Cloudy
8:53 PM26.1 °F26.1 °F100 %29.35 in10.0 miNorth (360°)4.6 mphScattered Clouds
9:41 PM24.8 °F24.8 °F100 %29.35 in10.0 miNE (50°)3.5 mphScattered Clouds
9:53 PM21.9 °F21.0 °F96 %29.36 in10.0 miVariable5.8 mphScattered Clouds
10:53 PM23.0 °F23.0 °F100 %29.37 in10.0 miNorth (360°)3.5 mphScattered Clouds
11:18 PM21.2 °F19.4 °F93 %29.36 in2.0 miCalmMostly Cloudy
11:53 PM19.9 °F19.9 °F100 %29.38 in2.0 miCalmMostly Cloudy
Hourly data recorded from PAMR, located miles away from Anchorage - Merrill Field, Alaska







STORIES FROM OUR PARTNERS